Location: The Saddle
(36.8333°N, 80.3417°W)
Time: 08:50:47
(UTC-05:00)

Vanguard 2 Rocket - Pass Details

Date: 17 December 2023
Orbit: 555 x 3309 km, 32.9° (Epoch: 02 March)

Event Time Altitude Azimuth Distance (km) Brightness Sun altitude
Rises 11:04:04 0° 235° (SW) 4,100 10.4 27.4°
Reaches altitude 10° 11:06:26 10° 231° (SW) 3,408 10.2 27.5°
Maximum altitude 11:15:18 57° 155° (SSE) 2,255 10.2 28.0°
Drops below altitude 10° 11:30:42 10° 83° (E) 5,690 11.1 28.8°
Sets 11:35:56 0° 81° (E) 6,993 11.4 29.0°
